Погода в Ройете

Таиланд     16°03′10″N   103°39′20″E
темп.,
°C
ветер,
м/с
пор.,
м/с
влажн.,
%
обл.,
%
осадки,
мм/ч
давл.,
гПа
погр.,
м
11 мая, вт
вт1101:00+29ююз36635 0.7 1006147
04:00+28юз366841 0.0 1006138
07:00+29юз366227 0.0 1008356
10:00+35юз44475 0.0 10081513
13:00+38юз443325 0.0 10052954
16:00+36ю773961 0.0 10031210
19:00+33ю374920 0.0 1004170
22:00+31ююв375573 0.3 1006244
12 мая, ср
ср1201:00+30ююз496378 0.4 1005332
04:00+29юз36685 0.0 1005183
07:00+30юз47636 0.0 1007388
10:00+34зюз454834 0.0 10081315
13:00+36ююз3439100 0.4 10052403
16:00+35юв554485 0.2 10031141
19:00+30вюв476491 1.4 1004144
22:00+29ююв016871 0.3 100638
13 мая, чт
чт1301:00+30ю11656 0.3 100420
04:00+29ююз2265100 0.0 100424
07:00+30ююз126318 1.0 1006150
10:00+32ююз2257100 0.0 1007651
13:00+36ссв134410 0.0 10041403
16:00+34ююв344985 0.4 1003301
19:00+33ююз22505 0.4 100319
22:00+32ююз225323 0.0 100533
14 мая, пт
пт1401:00+30ююз22580 0.0 100428
04:00+29з23623 0.0 100449
07:00+30юз24610 0.0 1005248
10:00+35юз33445 0.0 10061618
13:00+37ю343682 0.1 10032516
16:00+36ююв444156 0.0 10021412
19:00+33ю36495 0.0 1002156
22:00+32ю345430 0.0 100489
15 мая, сб
сб1501:00+31ююз385879 0.0 1004350
04:00+30ю376556 0.0 1004266
07:00+30ю486789 0.0 1006372
10:00+35ююз454723 0.0 10061583
13:00+36ю3443100 0.4 10041494
16:00+37ю233833 0.0 10021599
19:00+32юв585216 0.0 1003196
22:00+30ю49625 0.7 1005250